This is the latest recevied weather packets stored in our database for station/object WW3TRG. If no packets are shown the sender has not sent any weather packets the latest 10 day(s).
| Time | Temp. | Humidity | Pressure | Rain* | Wind** | Luminosity | Snow |
|---|---|---|---|---|---|---|---|
| 1778088634 | 15.56° C | 99% | 1006.6 hPa | 0.51 mm | - | 28 W/m² | - |
| 1778088331 | 16.11° C | 99% | 1006.5 hPa | 0.51 mm | - | 48 W/m² | - |
| 1778088022 | 16.11° C | 99% | 1006.8 hPa | 0.51 mm | - | 91 W/m² | - |
| 1778087720 | 16.11° C | 99% | 1006.6 hPa | 0.51 mm | - | 91 W/m² | - |
| 1778087417 | 15.56° C | 99% | 1006.9 hPa | 1.27 mm | - | 82 W/m² | - |
| 1778087115 | 15.56° C | 99% | 1007.2 hPa | 0.51 mm | - | 72 W/m² | - |
| 1778086812 | 15.56° C | 99% | 1007.1 hPa | 1.27 mm | - | 69 W/m² | - |
| 1778086510 | 15.56° C | 99% | 1006.9 hPa | 1.78 mm | - | 51 W/m² | - |
| 1778086200 | 15.56° C | 99% | 1006.9 hPa | 1.27 mm | - | 70 W/m² | - |
| 1778085897 | 15.56° C | 99% | 1006.8 hPa | 0 mm | - | 56 W/m² | - |
| 1778085595 | 15.56° C | 99% | 1006.9 hPa | 0.51 mm | - | 37 W/m² | - |
| 1778085290 | 15.56° C | 99% | 1006.8 hPa | 0.51 mm | - | 23 W/m² | - |
| 1778084985 | 15.56° C | 99% | 1006.9 hPa | 0.51 mm | - | 27 W/m² | - |
| 1778084683 | 15.56° C | 99% | 1007.2 hPa | 0.51 mm | - | 31 W/m² | - |
| 1778084380 | 16.11° C | 99% | 1007.1 hPa | 1.27 mm | - | 43 W/m² | - |
| 1778084078 | 16.11° C | 99% | 1007 hPa | 0 mm | - | 39 W/m² | - |
| 1778083775 | 16.11° C | 99% | 1006.9 hPa | 0 mm | - | 24 W/m² | - |
| 1778083472 | 16.11° C | 99% | 1006.9 hPa | 0 mm | - | 32 W/m² | - |
| 1778083169 | 16.11° C | 99% | 1007 hPa | 4.83 mm | - | 53 W/m² | - |
| 1778082866 | 16.11° C | 99% | 1006.8 hPa | 4.83 mm | - | 99 W/m² | - |
| 1778081748 | 16.11° C | 99% | 1007.5 hPa | 2.29 mm | - | 61 W/m² | - |
| 1778081446 | 16.11° C | 99% | 1007.9 hPa | 2.29 mm | - | 38 W/m² | - |
| 1778081143 | 16.11° C | 99% | 1008 hPa | 4.32 mm | - | 59 W/m² | - |
| 1778080841 | 16.11° C | 99% | 1008 hPa | 4.32 mm | - | 39 W/m² | - |
| 1778080539 | 16.11° C | 99% | 1007.9 hPa | 0 mm | - | 21 W/m² | - |
* Rain latest hour (hover to see other rain measurements)
** Current wind speed in m/s (hover to see current wind gust speed)